GW0982 Weather Reports


time (UTC)temp
C
wind
direction
speed
KPH
gust
KPH
rain 1hr
cm
rain 24hr
cm
rain mn
cm
humidity
%
barometer
mb
20260506222035 20 189 1.6 1.6 0.00 0.00 0.00 24 1009.9
20260506221533 20 172 1.6 1.6 0.00 0.00 0.00 25 1009.7
20260506221030 20 237 0.0 0.0 0.00 0.00 0.00 25 1010.0
20260506220526 20 236 0.0 0.0 0.00 0.00 0.00 25 1010.0
20260506220022 20 146 1.6 3.2 0.00 0.00 0.00 25 1010.0
20260506215519 20 198 1.6 1.6 0.00 0.00 0.00 25 1010.1
20260506215015 19 256 3.2 3.2 0.00 0.00 0.00 25 1010.0
20260506214512 20 187 0.0 0.0 0.00 0.00 0.00 25 1009.9
20260506214009 20 222 0.0 0.0 0.00 0.00 0.00 25 1010.1
20260506213507 20 171 0.0 0.0 0.00 0.00 0.00 25 1010.0
20260506213004 20 190 0.0 0.0 0.00 0.00 0.00 25 1010.2
20260506212500 19 265 4.8 4.8 0.00 0.00 0.00 26 1010.3
20260506211955 20 243 0.0 0.0 0.00 0.00 0.00 25 1010.3
20260506211451 20 199 0.0 0.0 0.00 0.00 0.00 26 1010.3
20260506210949 19 191 0.0 0.0 0.00 0.00 0.00 26 1010.6
20260506210445 19 233 0.0 0.0 0.00 0.00 0.00 26 1010.4
20260506205942 18 222 0.0 0.0 0.00 0.00 0.00 28 1010.7
20260506205438 19 127 0.0 1.6 0.00 0.00 0.00 26 1010.4
20260506204934 19 254 1.6 3.2 0.00 0.00 0.00 25 1010.6
20260506204432 19 276 3.2 4.8 0.00 0.00 0.00 26 1010.7
20260506203929 19 288 3.2 9.7 0.00 0.00 0.00 26 1010.6
20260506203427 20 194 0.0 0.0 0.00 0.00 0.00 25 1010.7
20260506202923 20 245 0.0 0.0 0.00 0.00 0.00 26 1010.9
20260506202421 20 236 0.0 0.0 0.00 0.00 0.00 26 1010.9
20260506201917 19 123 0.0 0.0 0.00 0.00 0.00 25 1011.0
20260506201415 19 144 1.6 1.6 0.00 0.00 0.00 26 1011.1
20260506200911 18 285 1.6 3.2 0.00 0.00 0.00 26 1011.3
20260506200407 18 259 0.0 0.0 0.00 0.00 0.00 26 1011.5
20260506195904 18 119 0.0 0.0 0.00 0.00 0.00 27 1011.6
20260506195401 17 203 0.0 0.0 0.00 0.00 0.00 27 1011.7
20260506194858 17 209 0.0 0.0 0.00 0.00 0.00 27 1011.7
20260506194354 17 193 0.0 0.0 0.00 0.00 0.00 27 1011.7
20260506193852 17 211 0.0 1.6 0.00 0.00 0.00 28 1011.9
20260506193349 17 226 0.0 0.0 0.00 0.00 0.00 28 1012.0
20260506192845 17 155 4.8 8.0 0.00 0.00 0.00 28 1011.9
20260506192342 17 91 0.0 0.0 0.00 0.00 0.00 28 1011.9
20260506191839 16 274 4.8 4.8 0.00 0.00 0.00 29 1011.9
20260506191335 17 275 8.0 11.3 0.00 0.00 0.00 27 1012.2
20260506190832 17 205 0.0 1.6 0.00 0.00 0.00 28 1012.3
20260506190328 16 196 3.2 3.2 0.00 0.00 0.00 28 1012.4
20260506185825 16 256 0.0 0.0 0.00 0.00 0.00 30 1012.3
20260506185322 16 242 0.0 0.0 0.00 0.00 0.00 31 1012.6
20260506184819 16 264 0.0 0.0 0.00 0.00 0.00 31 1012.5
20260506184317 16 169 1.6 1.6 0.00 0.00 0.00 29 1012.7
20260506183814 15 249 0.0 0.0 0.00 0.00 0.00 32 1012.8
20260506183309 15 172 1.6 3.2 0.00 0.00 0.00 31 1012.8
20260506182806 15 173 3.2 3.2 0.00 0.00 0.00 31 1012.9
20260506182306 15 142 1.6 3.2 0.00 0.00 0.00 31 1012.9
20260506181801 15 233 0.0 0.0 0.00 0.00 0.00 31 1012.9
20260506181259 15 212 0.0 0.0 0.00 0.00 0.00 33 1013.1
20260506180756 15 282 3.2 3.2 0.00 0.00 0.00 32 1013.1
20260506180251 15 129 1.6 3.2 0.00 0.00 0.00 32 1013.2
20260506175748 15 138 4.8 4.8 0.00 0.00 0.00 32 1013.3
20260506175245 14 117 0.0 1.6 0.00 0.00 0.00 33 1013.5
20260506174742 14 189 0.0 0.0 0.00 0.00 0.00 33 1013.6
20260506174239 15 272 6.4 8.0 0.00 0.00 0.00 32 1013.6
20260506173737 14 223 0.0 0.0 0.00 0.00 0.00 33 1013.8
20260506173234 14 240 0.0 0.0 0.00 0.00 0.00 34 1013.7
20260506172730 15 203 0.0 0.0 0.00 0.00 0.00 34 1013.9
20260506172227 14 156 3.2 3.2 0.00 0.00 0.00 34 1013.9
20260506171725 13 207 0.0 0.0 0.00 0.00 0.00 35 1014.0
20260506171222 13 149 0.0 0.0 0.00 0.00 0.00 34 1014.0
20260506170719 13 244 0.0 0.0 0.00 0.00 0.00 36 1014.0
20260506170216 13 203 0.0 1.6 0.00 0.00 0.00 37 1014.4
20260506165714 12 317 1.6 1.6 0.00 0.00 0.00 38 1014.2
20260506165211 12 132 0.0 0.0 0.00 0.00 0.00 39 1014.4
20260506164708 12 270 1.6 1.6 0.00 0.00 0.00 41 1014.4
20260506164205 12 285 0.0 0.0 0.00 0.00 0.00 39 1014.5
20260506163701 12 172 0.0 0.0 0.00 0.00 0.00 39 1014.6
20260506163157 11 213 0.0 0.0 0.00 0.00 0.00 41 1014.8
20260506162653 11 238 0.0 0.0 0.00 0.00 0.00 40 1014.7
20260506162150 11 93 0.0 0.0 0.00 0.00 0.00 41 1015.1
20260506161648 11 197 0.0 1.6 0.00 0.00 0.00 42 1015.1
20260506161144 10 282 3.2 3.2 0.00 0.00 0.00 43 1015.2
20260506160642 11 288 3.2 3.2 0.00 0.00 0.00 43 1015.1
20260506160139 11 200 0.0 0.0 0.00 0.00 0.00 42 1015.3
20260506155638 10 271 0.0 1.6 0.00 0.00 0.00 44 1015.4
20260506155134 9 293 4.8 4.8 0.00 0.00 0.00 46 1015.6
20260506153236 9 259 3.2 3.2 0.00 0.00 0.00 49 1015.7
20260506152733 9 271 4.8 4.8 0.00 0.00 0.00 47 1015.7
20260506152230 10 231 0.0 0.0 0.00 0.00 0.00 46 1015.7
20260506151730 10 262 0.0 0.0 0.00 0.00 0.00 46 1015.8
20260506151225 10 282 0.0 0.0 0.00 0.00 0.00 45 1015.7
20260506150722 8 127 0.0 0.0 0.00 0.00 0.00 49 1016.0
20260506150219 8 253 0.0 0.0 0.00 0.00 0.00 53 1015.9
20260506145716 8 252 0.0 0.0 0.00 0.00 0.00 55 1015.9
20260506145213 7 243 0.0 0.0 0.00 0.00 0.00 58 1016.1
20260506144710 6 229 0.0 0.0 0.00 0.00 0.00 61 1016.1
20260506144207 6 249 0.0 0.0 0.00 0.00 0.00 61 1016.1
20260506143705 5 268 1.6 1.6 0.00 0.00 0.00 63 1016.0
20260506143202 5 270 0.0 0.0 0.00 0.00 0.00 64 1016.2
20260506142701 5 254 0.0 0.0 0.00 0.00 0.00 66 1016.1
20260506142158 5 272 0.0 0.0 0.00 0.00 0.00 67 1016.1
20260506141656 4 249 0.0 0.0 0.00 0.00 0.00 70 1016.1
20260506141154 2 244 0.0 0.0 0.00 0.00 0.00 77 1016.1
20260506140651 2 243 0.0 0.0 0.00 0.00 0.00 78 1016.2
20260506140148 2 244 0.0 0.0 0.00 0.00 0.00 79 1016.0
20260506135645 1 247 0.0 0.0 0.00 0.00 0.00 79 1016.1
20260506135141 1 247 0.0 0.0 0.00 0.00 0.00 79 1016.0
20260506134638 1 246 0.0 0.0 0.00 0.00 0.00 78 1016.0
20260506134133 1 245 0.0 0.0 0.00 0.00 0.00 78 1016.1
20260506133631 1 242 0.0 0.0 0.00 0.00 0.00 78 1016.0
20260506133128 1 247 0.0 0.0 0.00 0.00 0.00 77 1016.1
20260506132626 1 239 0.0 0.0 0.00 0.00 0.00 78 1015.9
20260506132122 1 239 0.0 0.0 0.00 0.00 0.00 77 1015.8
20260506131620 1 239 0.0 0.0 0.00 0.00 0.00 77 1015.8
20260506131116 1 239 0.0 0.0 0.00 0.00 0.00 77 1015.9
20260506130613 1 235 0.0 0.0 0.00 0.00 0.00 76 1015.8
20260506130110 2 247 0.0 0.0 0.00 0.00 0.00 76 1015.7
20260506125609 2 252 0.0 0.0 0.00 0.00 0.00 75 1015.7
20260506125106 2 241 0.0 0.0 0.00 0.00 0.00 75 1015.8
20260506124603 1 247 0.0 0.0 0.00 0.00 0.00 76 1015.6
20260506124101 1 247 0.0 0.0 0.00 0.00 0.00 76 1015.4
20260506123558 1 246 0.0 0.0 0.00 0.00 0.00 75 1015.7
20260506123057 1 246 0.0 0.0 0.00 0.00 0.00 75 1015.4
20260506122553 2 247 0.0 0.0 0.00 0.00 0.00 75 1015.3
20260506122051 2 263 0.0 0.0 0.00 0.00 0.00 74 1015.2
20260506121548 2 232 0.0 0.0 0.00 0.00 0.00 74 1015.3
20260506121044 2 210 0.0 0.0 0.00 0.00 0.00 74 1015.6
20260506120543 1 214 0.0 0.0 0.00 0.00 0.00 74 1015.1
20260506120040 1 246 0.0 0.0 0.00 0.00 0.00 74 1015.3
20260506115538 2 248 0.0 0.0 0.00 0.00 0.00 74 1015.3
20260506115036 2 250 0.0 0.0 0.00 0.00 0.00 74 1015.3
20260506114533 2 244 0.0 0.0 0.00 0.00 0.00 74 1015.3
20260506114031 2 246 0.0 0.0 0.00 0.00 0.00 74 1015.2
20260506113529 2 249 0.0 0.0 0.00 0.00 0.00 73 1015.2
20260506113026 2 235 0.0 0.0 0.00 0.00 0.00 72 1015.3
20260506112522 2 259 0.0 0.0 0.00 0.00 0.00 72 1015.3
20260506112020 2 247 0.0 0.0 0.00 0.00 0.00 72 1015.1
20260506111518 2 245 0.0 0.0 0.00 0.00 0.00 72 1015.3
20260506111015 2 248 0.0 0.0 0.00 0.00 0.00 72 1015.2
20260506110512 2 247 0.0 0.0 0.00 0.00 0.00 72 1015.1
20260506110009 2 246 0.0 0.0 0.00 0.00 0.00 71 1015.2
20260506105505 2 248 0.0 0.0 0.00 0.00 0.00 71 1015.1
20260506105003 2 247 0.0 0.0 0.00 0.00 0.00 71 1015.2
20260506104501 2 238 0.0 0.0 0.00 0.00 0.00 70 1015.1
20260506103959 2 243 0.0 0.0 0.00 0.00 0.00 70 1015.0
20260506103455 2 240 0.0 0.0 0.00 0.00 0.00 70 1015.0
20260506102952 2 259 0.0 0.0 0.00 0.00 0.00 69 1015.0
20260506102450 2 241 0.0 0.0 0.00 0.00 0.00 69 1015.0
20260506101947 2 234 0.0 0.0 0.00 0.00 0.00 69 1014.9
20260506101444 2 272 0.0 0.0 0.00 0.00 0.00 69 1014.9
20260506100941 3 237 0.0 0.0 0.00 0.00 0.00 68 1015.0
20260506100439 3 242 0.0 0.0 0.00 0.00 0.00 68 1015.0
20260506095937 3 249 0.0 0.0 0.00 0.00 0.00 67 1014.7
20260506095436 3 245 0.0 0.0 0.00 0.00 0.00 67 1015.0
20260506094931 3 260 0.0 0.0 0.00 0.00 0.00 66 1014.8
20260506094430 3 235 0.0 0.0 0.00 0.00 0.00 66 1014.7
20260506093927 3 239 0.0 0.0 0.00 0.00 0.00 66 1014.9
20260506093425 3 237 0.0 0.0 0.00 0.00 0.00 65 1015.0
20260506092923 3 248 0.0 0.0 0.00 0.00 0.00 66 1014.9
20260506092420 3 243 0.0 0.0 0.00 0.00 0.00 66 1014.8
20260506091916 3 249 0.0 0.0 0.00 0.00 0.00 65 1014.7
20260506091415 3 236 0.0 0.0 0.00 0.00 0.00 65 1014.9
20260506090912 3 248 0.0 0.0 0.00 0.00 0.00 65 1014.9
20260506090409 3 236 0.0 0.0 0.00 0.00 0.00 64 1014.9
20260506085906 4 224 0.0 0.0 0.00 0.00 0.00 63 1014.9
20260506085403 4 242 0.0 0.0 0.00 0.00 0.00 63 1014.7
20260506084859 4 241 0.0 0.0 0.00 0.00 0.00 62 1014.8
20260506084355 4 210 0.0 0.0 0.00 0.00 0.00 62 1014.8
20260506083852 4 228 0.0 0.0 0.00 0.00 0.00 62 1014.8
20260506083350 4 248 0.0 0.0 0.00 0.00 0.00 62 1014.7
20260506082847 5 233 0.0 0.0 0.00 0.00 0.00 61 1014.6
20260506082343 5 251 0.0 0.0 0.00 0.00 0.00 60 1014.8
20260506081839 5 242 0.0 0.0 0.00 0.00 0.00 60 1014.6
20260506081338 5 254 0.0 1.6 0.00 0.00 0.00 59 1014.7
20260506080835 5 261 0.0 0.0 0.00 0.00 0.00 59 1014.5
20260506080331 5 242 0.0 0.0 0.00 0.00 0.00 58 1014.5
20260506073315 6 241 0.0 0.0 0.00 0.00 0.00 56 1014.6
20260506072812 6 250 0.0 0.0 0.00 0.00 0.00 57 1014.2
20260506072310 6 250 0.0 0.0 0.00 0.00 0.00 57 1014.5
20260506071807 6 231 0.0 0.0 0.00 0.00 0.00 56 1014.2
20260506071306 6 287 1.6 1.6 0.00 0.00 0.00 55 1014.5
20260506070802 6 309 0.0 0.0 0.00 0.00 0.00 54 1014.1
20260506070259 6 212 0.0 0.0 0.00 0.00 0.00 53 1014.1
20260506062236 8 245 0.0 0.0 0.00 0.00 0.00 48 1013.9
20260506061732 8 240 0.0 0.0 0.00 0.00 0.00 46 1013.8
20260506061229 9 251 0.0 0.0 0.00 0.00 0.00 45 1013.9
20260506060728 10 228 0.0 0.0 0.00 0.00 0.00 41 1013.7
20260506060225 10 195 0.0 0.0 0.00 0.00 0.00 41 1013.6
20260506050817 8 240 0.0 0.0 0.00 0.00 0.00 49 1012.9
20260506050314 8 240 0.0 0.0 0.00 0.00 0.00 49 1012.9
20260506044804 8 244 0.0 0.0 0.00 0.00 0.00 47 1012.8
20260506044302 9 240 0.0 0.0 0.00 0.00 0.00 47 1012.8
20260506043759 9 233 0.0 0.0 0.00 0.00 0.00 45 1012.9
20260506043256 9 241 0.0 0.0 0.00 0.00 0.00 46 1012.7
20260506042755 10 244 0.0 0.0 0.00 0.00 0.00 46 1012.7
20260506042253 10 239 0.0 0.0 0.00 0.00 0.00 45 1012.8
20260506041751 10 231 0.0 0.0 0.00 0.00 0.00 44 1012.7
20260506041248 10 233 0.0 0.0 0.00 0.00 0.00 44 1012.5
20260506040745 10 234 0.0 0.0 0.00 0.00 0.00 44 1012.6
20260506040242 11 235 0.0 0.0 0.00 0.00 0.00 44 1012.5
20260506035739 11 237 0.0 0.0 0.00 0.00 0.00 43 1012.4
20260506035236 11 234 0.0 0.0 0.00 0.00 0.00 40 1012.4
20260506034733 11 240 0.0 0.0 0.00 0.00 0.00 43 1012.4
20260506034230 11 240 0.0 0.0 0.00 0.00 0.00 42 1012.4
20260506033727 12 229 0.0 0.0 0.00 0.00 0.00 42 1012.2
20260506033224 12 221 0.0 0.0 0.00 0.00 0.00 41 1012.3
20260506032721 13 244 0.0 0.0 0.00 0.00 0.00 40 1012.2
20260506032218 13 227 0.0 0.0 0.00 0.00 0.00 37 1012.2
20260506031715 14 209 0.0 0.0 0.00 0.00 0.00 35 1012.3
20260506031212 15 235 0.0 0.0 0.00 0.00 0.00 31 1012.1
20260506030710 15 241 0.0 0.0 0.00 0.00 0.00 31 1012.3
20260506030207 15 229 0.0 0.0 0.00 0.00 0.00 30 1012.1
20260506025704 16 239 0.0 0.0 0.00 0.00 0.00 31 1012.0
20260506025200 16 233 0.0 0.0 0.00 0.00 0.00 29 1012.1
20260506024658 16 240 0.0 0.0 0.00 0.00 0.00 28 1012.0
20260506024154 17 245 0.0 0.0 0.00 0.00 0.00 27 1011.7
20260506023650 17 314 3.2 3.2 0.00 0.00 0.00 23 1011.7
20260506023148 18 295 4.8 4.8 0.00 0.00 0.00 22 1011.7
20260506022645 18 244 1.6 1.6 0.00 0.00 0.00 22 1011.7
20260506022142 18 274 1.6 3.2 0.00 0.00 0.00 21 1011.7
20260506021640 18 265 4.8 4.8 0.00 0.00 0.00 21 1011.5
20260506021137 18 287 3.2 3.2 0.00 0.00 0.00 21 1011.7
20260506020634 18 265 3.2 4.8 0.00 0.00 0.00 21 1011.6
20260506020131 18 261 4.8 4.8 0.00 0.00 0.00 20 1011.5
20260506015629 19 270 6.4 8.0 0.00 0.00 0.00 20 1011.6
20260506015126 19 280 9.7 11.3 0.00 0.00 0.00 19 1011.7
20260506014623 19 281 8.0 9.7 0.00 0.00 0.00 20 1011.5
20260506014118 20 270 11.3 14.5 0.00 0.00 0.00 19 1011.5
20260506013617 20 238 0.0 1.6 0.00 0.00 0.00 20 1011.5
20260506013113 20 321 8.0 11.3 0.00 0.00 0.00 18 1011.4
20260506012610 20 237 8.0 9.7 0.00 0.00 0.00 18 1011.4
20260506012106 20 275 1.6 3.2 0.00 0.00 0.00 18 1011.4
20260506011604 20 289 8.0 11.3 0.00 0.00 0.00 18 1011.6
20260506011059 20 293 12.9 14.5 0.00 0.00 0.00 18 1011.6
20260506010554 20 242 8.0 12.9 0.00 0.00 0.00 17 1011.4
20260506010050 20 284 11.3 12.9 0.00 0.00 0.00 17 1011.4
20260506005547 20 311 8.0 11.3 0.00 0.00 0.00 17 1011.5
20260506005043 20 276 6.4 9.7 0.00 0.00 0.00 17 1011.5
20260506004541 20 281 14.5 16.1 0.00 0.00 0.00 17 1011.4
20260506004037 20 269 4.8 8.0 0.00 0.00 0.00 18 1011.5
20260506003534 20 277 6.4 8.0 0.00 0.00 0.00 17 1011.5
20260506003030 20 250 4.8 8.0 0.00 0.00 0.00 16 1011.6
20260506002526 20 275 14.5 16.1 0.00 0.00 0.00 17 1011.5
20260506002022 20 324 8.0 12.9 0.00 0.00 0.00 17 1011.7
20260506001518 20 289 9.7 12.9 0.00 0.00 0.00 16 1011.5
20260506001015 20 292 6.4 8.0 0.00 0.00 0.00 17 1011.7
20260506000513 20 268 9.7 12.9 0.00 0.00 0.00 16 1011.9
20260506000010 20 280 9.7 11.3 0.00 0.00 0.00 16 1011.9
20260505235508 20 320 11.3 12.9 0.00 0.00 0.00 16 1011.9
20260505235004 20 273 9.7 12.9 0.00 0.00 0.00 15 1011.9
20260505234502 20 235 4.8 9.7 0.00 0.00 0.00 16 1012.2
20260505233958 20 286 9.7 14.5 0.00 0.00 0.00 15 1012.2
20260505233456 20 318 6.4 9.7 0.00 0.00 0.00 16 1012.1
20260505232953 20 266 6.4 8.0 0.00 0.00 0.00 16 1012.2
20260505232451 20 278 8.0 11.3 0.00 0.00 0.00 16 1012.3
20260505231948 20 286 6.4 8.0 0.00 0.00 0.00 16 1012.1
20260505231446 20 297 8.0 11.3 0.00 0.00 0.00 17 1012.3
20260505230944 20 312 9.7 12.9 0.00 0.00 0.00 16 1012.5
20260505230441 20 291 14.5 17.7 0.00 0.00 0.00 16 1012.6
20260505225937 20 296 9.7 12.9 0.00 0.00 0.00 16 1012.6
20260505225434 20 264 11.3 11.3 0.00 0.00 0.00 16 1012.6
20260505224930 20 272 9.7 11.3 0.00 0.00 0.00 16 1012.7
20260505224427 20 288 12.9 14.5 0.00 0.00 0.00 16 1012.7
20260505223924 20 248 1.6 3.2 0.00 0.00 0.00 16 1012.7
20260505223421 20 282 6.4 8.0 0.00 0.00 0.00 17 1012.8
20260505222917 20 301 6.4 8.0 0.00 0.00 0.00 17 1012.8
20260505222414 20 271 4.8 8.0 0.00 0.00 0.00 18 1013.1